Time,TemperatureF,DewpointF,PressureIn,WindDirection,WindDirectionDegrees,WindSpeedMPH,WindSpeedGustMPH,Humidity,HourlyPrecipIn,Conditions,Clouds,dailyrainin,SoftwareType,DateUTC
2013-09-20 00:01:00,66.6,65.4,28.76,SSW,202,2.3,2.3,96,0.00,RA,,0.00,WeatherDisplay:10.37,2013-09-20 05:01:00,
2013-09-20 00:06:00,66.6,65.4,28.76,SSW,202,2.3,2.3,96,0.00,RA,,0.00,WeatherDisplay:10.37,2013-09-20 05:06:00,
2013-09-20 00:11:00,66.4,65.2,28.73,SSW,202,0.0,0.0,96,0.00,CLR,,0.00,WeatherDisplay:10.37,2013-09-20 05:11:00,
2013-09-20 00:16:00,66.4,65.2,28.73,SSW,202,0.0,0.0,96,0.00,CLR,,0.00,WeatherDisplay:10.37,2013-09-20 05:16:00,
2013-09-20 00:21:00,66.4,64.9,28.73,SSW,202,1.1,0.0,95,0.00,CLR,,0.00,WeatherDisplay:10.37,2013-09-20 05:21:00,
2013-09-20 00:26:00,66.4,65.2,28.76,South,180,2.3,2.3,96,0.00,CLR,,0.00,WeatherDisplay:10.37,2013-09-20 05:26:00,
2013-09-20 00:31:00,66.4,65.2,28.76,South,180,1.4,1.4,96,0.00,CLR,,0.00,WeatherDisplay:10.37,2013-09-20 05:31:00,
2013-09-20 00:36:00,66.4,65.2,28.76,SW,225,2.4,2.4,96,0.00,CLR,,0.00,WeatherDisplay:10.37,2013-09-20 05:36:00,
2013-09-20 00:41:00,66.4,65.2,28.76,SSW,202,4.6,4.6,96,0.00,CLR,,0.00,WeatherDisplay:10.37,2013-09-20 05:41:00,
2013-09-20 00:47:00,66.4,65.2,28.76,SSW,202,1.4,1.4,96,0.00,CLR,,0.00,WeatherDisplay:10.37,2013-09-20 05:47:00,
2013-09-20 00:52:00,66.4,65.2,28.76,SSW,202,1.1,1.1,96,0.00,CLR,,0.00,WeatherDisplay:10.37,2013-09-20 05:52:00,
2013-09-20 00:57:00,66.4,65.2,28.76,SSW,202,2.3,2.3,96,0.00,CLR,,0.00,WeatherDisplay:10.37,2013-09-20 05:57:00,
2013-09-20 01:02:00,66.4,65.2,28.76,SW,225,4.6,4.6,96,0.00,CLR,,0.00,WeatherDisplay:10.37,2013-09-20 06:02:00,
2013-09-20 01:07:00,66.4,65.2,28.76,SW,225,3.5,3.5,96,0.00,CLR,,0.00,WeatherDisplay:10.37,2013-09-20 06:07:00,
2013-09-20 01:12:00,66.4,65.2,28.76,SW,225,3.5,3.5,96,0.00,CLR,,0.00,WeatherDisplay:10.37,2013-09-20 06:12:00,
2013-09-20 01:17:00,66.4,65.2,28.76,SSW,202,3.5,3.5,96,0.00,CLR,,0.00,WeatherDisplay:10.37,2013-09-20 06:17:00,
2013-09-20 01:22:00,66.4,65.2,28.76,SW,225,4.6,4.6,96,0.00,CLR,,0.00,WeatherDisplay:10.37,2013-09-20 06:22:00,
2013-09-20 01:27:00,66.4,65.2,28.76,WSW,248,3.5,3.5,96,0.00,CLR,,0.00,WeatherDisplay:10.37,2013-09-20 06:27:00,
2013-09-20 01:32:00,66.4,65.2,28.76,WSW,248,5.8,5.8,96,0.00,CLR,,0.00,WeatherDisplay:10.37,2013-09-20 06:32:00,
2013-09-20 01:37:00,66.4,64.9,28.76,SW,225,4.6,4.6,95,0.00,CLR,,0.00,WeatherDisplay:10.37,2013-09-20 06:37:00,
2013-09-20 01:42:00,66.2,64.7,28.76,SW,225,4.6,4.6,95,0.00,CLR,,0.00,WeatherDisplay:10.37,2013-09-20 06:42:00,
2013-09-20 01:47:00,66.2,64.7,28.76,SW,225,3.5,3.5,95,0.00,CLR,,0.00,WeatherDisplay:10.37,2013-09-20 06:47:00,
2013-09-20 01:52:00,66.2,64.7,28.76,SSW,202,3.5,3.5,95,0.00,CLR,,0.00,WeatherDisplay:10.37,2013-09-20 06:52:00,
2013-09-20 01:57:00,66.0,64.5,28.79,South,180,3.5,3.5,95,0.00,CLR,,0.00,WeatherDisplay:10.37,2013-09-20 06:57:00,
2013-09-20 02:02:00,65.8,64.4,28.79,SSW,202,3.5,3.5,95,0.00,CLR,,0.00,WeatherDisplay:10.37,2013-09-20 07:02:00,
2013-09-20 02:07:00,65.8,64.4,28.79,SSW,202,3.8,3.8,95,0.00,CLR,,0.00,WeatherDisplay:10.37,2013-09-20 07:07:00,
2013-09-20 02:12:00,65.7,64.2,28.76,SW,225,3.5,3.5,95,0.00,CLR,,0.00,WeatherDisplay:10.37,2013-09-20 07:12:00,
2013-09-20 02:17:00,65.7,64.2,28.76,SW,225,3.5,3.5,95,0.00,CLR,,0.00,WeatherDisplay:10.37,2013-09-20 07:17:00,
2013-09-20 02:22:00,65.5,64.0,28.76,SW,225,3.5,3.5,95,0.00,CLR,,0.00,WeatherDisplay:10.37,2013-09-20 07:22:00,
2013-09-20 02:27:00,65.5,64.0,28.76,WSW,248,2.4,2.6,95,0.00,CLR,,0.00,WeatherDisplay:10.37,2013-09-20 07:27:00,
2013-09-20 02:32:00,65.5,64.0,28.76,SW,225,3.5,3.5,95,0.00,CLR,,0.00,WeatherDisplay:10.37,2013-09-20 07:32:00,
2013-09-20 02:37:00,65.5,64.0,28.76,WSW,248,4.3,4.3,95,0.00,CLR,,0.00,WeatherDisplay:10.37,2013-09-20 07:37:00,
2013-09-20 02:42:00,65.5,64.0,28.76,SW,225,2.6,2.6,95,0.00,CLR,,0.00,WeatherDisplay:10.37,2013-09-20 07:42:00,
2013-09-20 02:47:00,65.3,63.8,28.76,SW,225,2.9,2.9,95,0.00,CLR,,0.00,WeatherDisplay:10.37,2013-09-20 07:47:00,
2013-09-20 02:52:00,65.3,63.8,28.76,SW,225,3.5,3.5,95,0.00,CLR,,0.00,WeatherDisplay:10.37,2013-09-20 07:52:00,
2013-09-20 02:57:00,65.3,63.8,28.79,SSW,202,4.6,4.6,95,0.00,CLR,,0.00,WeatherDisplay:10.37,2013-09-20 07:57:00,
2013-09-20 03:02:00,65.3,63.8,28.79,SW,225,5.8,5.8,95,0.00,CLR,,0.00,WeatherDisplay:10.37,2013-09-20 08:02:00,
2013-09-20 03:07:00,65.3,63.8,28.79,WSW,248,4.6,4.6,95,0.00,CLR,,0.00,WeatherDisplay:10.37,2013-09-20 08:07:00,
2013-09-20 03:12:00,65.3,63.8,28.76,SW,225,3.5,3.5,95,0.00,CLR,,0.00,WeatherDisplay:10.37,2013-09-20 08:12:00,
2013-09-20 03:17:00,65.1,63.7,28.76,West,270,2.3,2.3,95,0.00,CLR,,0.00,WeatherDisplay:10.37,2013-09-20 08:17:00,
2013-09-20 03:22:00,65.1,63.7,28.76,SW,225,5.4,5.4,95,0.00,CLR,,0.00,WeatherDisplay:10.37,2013-09-20 08:22:00,
2013-09-20 03:27:00,65.1,63.7,28.79,SW,225,4.6,4.6,95,0.00,CLR,,0.00,WeatherDisplay:10.37,2013-09-20 08:27:00,
2013-09-20 03:32:00,65.1,63.7,28.79,SW,225,5.4,5.4,95,0.00,CLR,,0.00,WeatherDisplay:10.37,2013-09-20 08:32:00,
2013-09-20 03:37:00,65.1,63.7,28.79,SSW,202,3.5,3.5,95,0.00,CLR,,0.00,WeatherDisplay:10.37,2013-09-20 08:37:00,
2013-09-20 03:42:00,65.1,63.7,28.76,SSW,202,3.5,3.5,95,0.00,CLR,,0.00,WeatherDisplay:10.37,2013-09-20 08:42:00,
2013-09-20 03:47:00,64.9,63.2,28.76,SW,225,3.5,3.5,94,0.00,CLR,,0.00,WeatherDisplay:10.37,2013-09-20 08:47:00,
2013-09-20 03:52:00,64.9,63.2,28.76,WSW,248,4.6,4.6,94,0.00,CLR,,0.00,WeatherDisplay:10.37,2013-09-20 08:52:00,
2013-09-20 03:57:00,64.8,63.0,28.76,SSW,202,5.8,5.8,94,0.00,CLR,,0.00,WeatherDisplay:10.37,2013-09-20 08:57:00,
2013-09-20 04:02:00,64.8,63.0,28.76,SW,225,3.5,3.5,94,0.00,CLR,,0.00,WeatherDisplay:10.37,2013-09-20 09:02:00,
2013-09-20 04:07:00,64.8,63.0,28.76,SSW,202,4.6,4.6,94,0.00,CLR,,0.00,WeatherDisplay:10.37,2013-09-20 09:07:00,
2013-09-20 04:12:00,64.6,62.8,28.76,SW,225,4.6,4.6,94,0.00,CLR,,0.00,WeatherDisplay:10.37,2013-09-20 09:12:00,
2013-09-20 04:17:00,64.4,62.6,28.76,SSW,202,4.6,4.6,94,0.00,CLR,,0.00,WeatherDisplay:10.37,2013-09-20 09:17:00,
2013-09-20 04:22:00,64.4,62.6,28.76,West,270,4.6,4.6,94,0.00,CLR,,0.00,WeatherDisplay:10.37,2013-09-20 09:22:00,
2013-09-20 04:27:00,64.2,62.8,28.79,SSW,202,5.8,5.8,95,0.00,CLR,,0.00,WeatherDisplay:10.37,2013-09-20 09:27:00,
2013-09-20 04:32:00,64.2,62.8,28.79,South,180,4.6,4.6,95,0.00,CLR,,0.00,WeatherDisplay:10.37,2013-09-20 09:32:00,
2013-09-20 04:37:00,64.2,62.8,28.79,WSW,248,4.6,4.6,95,0.00,CLR,,0.00,WeatherDisplay:10.37,2013-09-20 09:37:00,
2013-09-20 04:42:00,64.0,62.6,28.79,SW,225,6.9,6.9,95,0.00,CLR,,0.00,WeatherDisplay:10.37,2013-09-20 09:42:00,
2013-09-20 04:47:00,64.0,62.6,28.79,SSW,202,3.5,3.5,95,0.00,CLR,,0.00,WeatherDisplay:10.37,2013-09-20 09:47:00,
2013-09-20 04:52:00,63.9,62.4,28.79,SW,225,5.8,5.8,95,0.00,CLR,,0.00,WeatherDisplay:10.37,2013-09-20 09:52:00,
2013-09-20 04:57:00,63.9,62.4,28.79,SSW,202,2.3,2.3,95,0.00,CLR,,0.00,WeatherDisplay:10.37,2013-09-20 09:57:00,
2013-09-20 05:02:00,63.9,62.4,28.79,NE,45,1.1,1.1,95,0.00,CLR,,0.00,WeatherDisplay:10.37,2013-09-20 10:02:00,
2013-09-20 05:07:00,63.7,62.2,28.79,NNW,338,1.6,1.6,95,0.00,CLR,,0.00,WeatherDisplay:10.37,2013-09-20 10:07:00,
2013-09-20 05:12:00,63.5,62.0,28.76,South,180,2.4,2.4,95,0.00,CLR,,0.00,WeatherDisplay:10.37,2013-09-20 10:12:00,
2013-09-20 05:17:00,63.5,61.7,28.76,SSW,202,2.3,2.3,94,0.00,CLR,,0.00,WeatherDisplay:10.37,2013-09-20 10:17:00,
2013-09-20 05:22:00,63.3,61.6,28.76,NNE,22,2.3,2.3,94,0.00,CLR,,0.00,WeatherDisplay:10.37,2013-09-20 10:22:00,
2013-09-20 05:27:00,63.1,61.4,28.76,WSW,248,3.5,3.5,94,0.00,CLR,,0.00,WeatherDisplay:10.37,2013-09-20 10:27:00,
2013-09-20 05:32:00,63.1,61.4,28.76,SSW,202,3.1,0.0,94,0.00,CLR,,0.00,WeatherDisplay:10.37,2013-09-20 10:32:00,
2013-09-20 05:37:00,63.0,61.2,28.76,WNW,292,2.9,2.9,94,0.00,CLR,,0.00,WeatherDisplay:10.37,2013-09-20 10:37:00,
2013-09-20 05:42:00,62.8,60.7,28.79,SW,225,2.3,2.3,93,0.00,CLR,,0.00,WeatherDisplay:10.37,2013-09-20 10:42:00,
2013-09-20 05:47:00,62.8,61.0,28.79,WSW,248,1.4,0.0,94,0.00,CLR,,0.00,WeatherDisplay:10.37,2013-09-20 10:47:00,
2013-09-20 05:52:00,62.6,60.5,28.79,WSW,248,4.6,4.6,93,0.00,CLR,,0.00,WeatherDisplay:10.37,2013-09-20 10:52:00,
2013-09-20 05:57:00,62.4,60.7,28.79,SSW,202,5.8,5.8,94,0.00,CLR,,0.00,WeatherDisplay:10.37,2013-09-20 10:57:00,
2013-09-20 06:03:00,62.2,60.5,28.79,SW,225,4.6,4.6,94,0.00,CLR,,0.00,WeatherDisplay:10.37,2013-09-20 11:03:00,
2013-09-20 06:08:00,62.1,60.3,28.79,SSW,202,5.8,5.8,94,0.00,CLR,,0.00,WeatherDisplay:10.37,2013-09-20 11:08:00,
2013-09-20 06:13:00,61.9,60.1,28.79,SW,225,4.6,4.6,94,0.00,CLR,,0.00,WeatherDisplay:10.37,2013-09-20 11:13:00,
2013-09-20 06:18:00,61.7,60.0,28.79,SW,225,5.6,5.6,94,0.00,CLR,,0.00,WeatherDisplay:10.37,2013-09-20 11:18:00,
2013-09-20 06:23:00,61.5,59.5,28.79,WSW,248,4.6,4.6,93,0.00,CLR,,0.00,WeatherDisplay:10.37,2013-09-20 11:23:00,
2013-09-20 06:28:00,61.3,59.3,28.79,WSW,248,4.6,4.6,93,0.00,CLR,,0.00,WeatherDisplay:10.37,2013-09-20 11:28:00,
2013-09-20 06:33:00,61.2,59.1,28.79,West,270,4.6,4.6,93,0.00,CLR,,0.00,WeatherDisplay:10.37,2013-09-20 11:33:00,
2013-09-20 06:38:00,61.0,58.9,28.79,WSW,248,4.9,4.9,93,0.00,CLR,,0.00,WeatherDisplay:10.37,2013-09-20 11:38:00,
2013-09-20 06:43:00,60.8,58.8,28.79,SW,225,5.8,5.8,93,0.00,CLR,,0.00,WeatherDisplay:10.37,2013-09-20 11:43:00,
2013-09-20 06:48:00,60.6,58.6,28.79,WSW,248,4.6,4.6,93,0.00,CLR,,0.00,WeatherDisplay:10.37,2013-09-20 11:48:00,
2013-09-20 06:53:00,60.4,58.4,28.79,SW,225,4.9,4.9,93,0.00,CLR,,0.00,WeatherDisplay:10.37,2013-09-20 11:53:00,
2013-09-20 06:58:00,60.3,58.2,28.76,SW,225,8.1,8.1,93,0.00,CLR,,0.00,WeatherDisplay:10.37,2013-09-20 11:58:00,
2013-09-20 07:03:00,60.1,58.0,28.76,SW,225,5.8,5.8,93,0.00,CLR,,0.00,WeatherDisplay:10.37,2013-09-20 12:03:00,
2013-09-20 07:08:00,60.1,58.0,28.76,SW,225,5.8,5.8,93,0.00,CLR,,0.00,WeatherDisplay:10.37,2013-09-20 12:08:00,
2013-09-20 07:13:00,59.9,57.9,28.79,SW,225,3.5,4.0,93,0.00,CLR,,0.00,WeatherDisplay:10.37,2013-09-20 12:13:00,
2013-09-20 07:18:00,59.9,57.9,28.79,WSW,248,5.8,5.8,93,0.00,CLR,,0.00,WeatherDisplay:10.37,2013-09-20 12:18:00,
2013-09-20 07:23:00,59.7,57.7,28.79,SW,225,5.8,5.8,93,0.00,CLR,,0.00,WeatherDisplay:10.37,2013-09-20 12:23:00,
2013-09-20 07:28:00,59.7,57.7,28.79,West,270,6.9,6.9,93,0.00,CLR,,0.00,WeatherDisplay:10.37,2013-09-20 12:28:00,
2013-09-20 07:33:00,59.5,57.5,28.79,SSW,202,6.9,6.9,93,0.00,CLR,,0.00,WeatherDisplay:10.37,2013-09-20 12:33:00,
2013-09-20 07:38:00,59.5,57.5,28.79,SW,225,5.8,5.8,93,0.00,CLR,,0.00,WeatherDisplay:10.37,2013-09-20 12:38:00,
2013-09-20 07:43:00,59.5,57.5,28.79,WSW,248,5.8,5.8,93,0.00,CLR,,0.00,WeatherDisplay:10.37,2013-09-20 12:43:00,
2013-09-20 07:48:00,59.4,57.3,28.79,WSW,248,4.6,4.6,93,0.00,CLR,,0.00,WeatherDisplay:10.37,2013-09-20 12:48:00,
2013-09-20 07:53:00,59.4,57.3,28.79,SW,225,2.6,3.1,93,0.00,CLR,,0.00,WeatherDisplay:10.37,2013-09-20 12:53:00,
2013-09-20 07:58:00,59.4,57.3,28.79,SSW,202,8.1,8.1,93,0.00,CLR,,0.00,WeatherDisplay:10.37,2013-09-20 12:58:00,
2013-09-20 08:03:00,59.4,57.3,28.79,SW,225,6.4,6.4,93,0.00,CLR,,0.00,WeatherDisplay:10.37,2013-09-20 13:03:00,
2013-09-20 08:08:00,59.4,57.3,28.79,SW,225,6.9,6.9,93,0.00,CLR,,0.00,WeatherDisplay:10.37,2013-09-20 13:08:00,
2013-09-20 08:13:00,59.4,57.3,28.79,SW,225,5.9,5.9,93,0.00,CLR,,0.00,WeatherDisplay:10.37,2013-09-20 13:13:00,
2013-09-20 08:18:00,59.4,57.3,28.79,WSW,248,3.5,3.5,93,0.00,CLR,,0.00,WeatherDisplay:10.37,2013-09-20 13:18:00,
2013-09-20 08:23:00,59.4,57.3,28.79,SW,225,5.8,5.8,93,0.00,CLR,,0.00,WeatherDisplay:10.37,2013-09-20 13:23:00,
2013-09-20 08:28:00,59.4,57.3,28.79,SW,225,4.6,4.6,93,0.00,CLR,,0.00,WeatherDisplay:10.37,2013-09-20 13:28:00,
2013-09-20 08:33:00,59.4,57.3,28.79,SSW,202,4.9,4.9,93,0.00,CLR,,0.00,WeatherDisplay:10.37,2013-09-20 13:33:00,
2013-09-20 08:38:00,59.4,57.3,28.79,SW,225,4.9,4.9,93,0.00,CLR,,0.00,WeatherDisplay:10.37,2013-09-20 13:38:00,
2013-09-20 08:43:00,59.5,57.5,28.79,SW,225,6.0,6.0,93,0.00,CLR,,0.00,WeatherDisplay:10.37,2013-09-20 13:43:00,
2013-09-20 08:48:00,59.5,57.5,28.79,SW,225,3.3,3.3,93,0.00,CLR,,0.00,WeatherDisplay:10.37,2013-09-20 13:48:00,
2013-09-20 08:53:00,59.5,57.5,28.79,SSW,202,4.6,4.6,93,0.00,CLR,,0.00,WeatherDisplay:10.37,2013-09-20 13:53:00,
2013-09-20 08:58:00,59.7,57.7,28.79,SW,225,4.9,4.9,93,0.00,CLR,,0.00,WeatherDisplay:10.37,2013-09-20 13:58:00,
2013-09-20 09:03:00,59.7,57.7,28.79,SSW,202,4.6,4.6,93,0.00,CLR,,0.00,WeatherDisplay:10.37,2013-09-20 14:03:00,
2013-09-20 09:08:00,59.7,57.7,28.79,WSW,248,4.9,4.9,93,0.00,CLR,,0.00,WeatherDisplay:10.37,2013-09-20 14:08:00,
2013-09-20 09:13:00,59.7,57.7,28.82,WSW,248,5.8,5.8,93,0.00,CLR,,0.00,WeatherDisplay:10.37,2013-09-20 14:13:00,
2013-09-20 09:18:00,59.9,57.9,28.82,WSW,248,4.6,4.6,93,0.00,CLR,,0.00,WeatherDisplay:10.37,2013-09-20 14:18:00,
2013-09-20 09:23:00,59.7,57.7,28.82,WNW,292,5.8,5.8,93,0.00,CLR,,0.00,WeatherDisplay:10.37,2013-09-20 14:23:00,
2013-09-20 09:28:00,59.9,57.9,28.82,SSW,202,5.8,5.8,93,0.00,CLR,,0.00,WeatherDisplay:10.37,2013-09-20 14:28:00,
2013-09-20 09:33:00,59.7,57.7,28.82,SW,225,6.9,6.9,93,0.00,CLR,,0.00,WeatherDisplay:10.37,2013-09-20 14:33:00,
2013-09-20 09:38:00,59.7,57.7,28.82,SW,225,8.1,8.1,93,0.00,CLR,,0.00,WeatherDisplay:10.37,2013-09-20 14:38:00,
2013-09-20 09:43:00,59.7,57.7,28.82,SW,225,8.1,8.1,93,0.00,CLR,,0.00,WeatherDisplay:10.37,2013-09-20 14:43:00,
2013-09-20 09:48:00,59.7,57.7,28.82,SSW,202,3.5,3.5,93,0.00,CLR,,0.00,WeatherDisplay:10.37,2013-09-20 14:48:00,
2013-09-20 09:53:00,59.5,57.5,28.82,North,0,5.8,5.8,93,0.00,CLR,,0.00,WeatherDisplay:10.37,2013-09-20 14:53:00,
2013-09-20 09:58:00,59.5,57.5,28.82,SW,225,6.0,6.0,93,0.00,CLR,,0.00,WeatherDisplay:10.37,2013-09-20 14:58:00,
2013-09-20 10:03:00,59.7,57.7,28.82,WSW,248,5.8,5.8,93,0.00,CLR,,0.00,WeatherDisplay:10.37,2013-09-20 15:03:00,
2013-09-20 10:08:00,59.9,57.9,28.82,SW,225,6.9,6.9,93,0.00,CLR,,0.00,WeatherDisplay:10.37,2013-09-20 15:08:00,
2013-09-20 10:13:00,59.9,57.6,28.82,SSW,202,9.2,9.2,92,0.00,CLR,,0.00,WeatherDisplay:10.37,2013-09-20 15:13:00,
2013-09-20 10:18:00,59.9,57.6,28.82,SSW,202,4.6,4.6,92,0.00,CLR,,0.00,WeatherDisplay:10.37,2013-09-20 15:18:00,
2013-09-20 10:23:00,60.1,57.7,28.82,SSW,202,6.0,6.0,92,0.00,CLR,,0.00,WeatherDisplay:10.37,2013-09-20 15:23:00,
2013-09-20 10:28:00,60.3,57.9,28.82,SW,225,3.5,3.5,92,0.00,CLR,,0.00,WeatherDisplay:10.37,2013-09-20 15:28:00,
2013-09-20 10:33:00,60.6,58.3,28.82,SSW,202,7.1,7.1,92,0.00,CLR,,0.00,WeatherDisplay:10.37,2013-09-20 15:33:00,
2013-09-20 10:38:00,60.6,58.3,28.82,SSW,202,5.8,5.8,92,0.00,CLR,,0.00,WeatherDisplay:10.37,2013-09-20 15:38:00,
2013-09-20 10:43:00,60.6,58.0,28.82,SW,225,4.7,4.7,91,0.00,CLR,,0.00,WeatherDisplay:10.37,2013-09-20 15:43:00,
2013-09-20 10:49:00,60.8,58.2,28.82,SSW,202,4.6,4.6,91,0.00,CLR,,0.00,WeatherDisplay:10.37,2013-09-20 15:49:00,
2013-09-20 10:54:00,60.8,58.2,28.82,SSW,202,5.8,5.8,91,0.00,CLR,,0.00,WeatherDisplay:10.37,2013-09-20 15:54:00,
2013-09-20 10:59:00,61.0,58.0,28.82,SSW,202,3.5,3.5,90,0.00,CLR,,0.00,WeatherDisplay:10.37,2013-09-20 15:59:00,
2013-09-20 11:04:00,61.0,58.0,28.82,SW,225,4.6,4.6,90,0.00,CLR,,0.00,WeatherDisplay:10.37,2013-09-20 16:04:00,
2013-09-20 11:09:00,61.0,58.0,28.82,SSW,202,6.9,6.9,90,0.00,CLR,,0.00,WeatherDisplay:10.37,2013-09-20 16:09:00,
2013-09-20 11:14:00,61.2,58.2,28.82,West,270,3.5,3.5,90,0.00,CLR,,0.00,WeatherDisplay:10.37,2013-09-20 16:14:00,
2013-09-20 11:19:00,61.2,58.2,28.82,WSW,248,5.9,5.9,90,0.00,CLR,,0.00,WeatherDisplay:10.37,2013-09-20 16:19:00,
2013-09-20 11:24:00,61.0,57.7,28.82,SW,225,4.3,4.3,89,0.00,CLR,,0.00,WeatherDisplay:10.37,2013-09-20 16:24:00,
2013-09-20 11:29:00,61.0,57.7,28.82,SW,225,5.8,5.8,89,0.00,CLR,,0.00,WeatherDisplay:10.37,2013-09-20 16:29:00,
2013-09-20 11:34:00,61.0,57.7,28.82,SW,225,4.9,4.9,89,0.00,CLR,,0.00,WeatherDisplay:10.37,2013-09-20 16:34:00,
2013-09-20 11:39:00,61.2,57.9,28.82,SW,225,4.6,4.6,89,0.00,CLR,,0.00,WeatherDisplay:10.37,2013-09-20 16:39:00,
2013-09-20 11:44:00,61.3,58.1,28.82,SW,225,5.9,5.9,89,0.00,CLR,,0.00,WeatherDisplay:10.37,2013-09-20 16:44:00,
2013-09-20 11:49:00,61.3,57.8,28.82,WSW,248,8.1,8.1,88,0.00,CLR,,0.00,WeatherDisplay:10.37,2013-09-20 16:49:00,
2013-09-20 11:54:00,61.3,57.8,28.82,WSW,248,6.9,6.9,88,0.00,CLR,,0.00,WeatherDisplay:10.37,2013-09-20 16:54:00,
2013-09-20 11:59:00,61.5,57.9,28.82,SW,225,5.6,5.6,88,0.00,CLR,,0.00,WeatherDisplay:10.37,2013-09-20 16:59:00,
2013-09-20 12:04:00,62.2,58.6,28.82,West,270,4.6,4.6,88,0.00,CLR,,0.00,WeatherDisplay:10.37,2013-09-20 17:04:00,
2013-09-20 12:09:00,62.8,59.2,28.82,SW,225,8.1,8.1,88,0.00,CLR,,0.00,WeatherDisplay:10.37,2013-09-20 17:09:00,
2013-09-20 12:14:00,63.1,58.9,28.82,SW,225,5.8,5.8,86,0.00,CLR,,0.00,WeatherDisplay:10.37,2013-09-20 17:14:00,
2013-09-20 12:19:00,63.1,58.6,28.82,SW,225,6.9,6.9,85,0.00,CLR,,0.00,WeatherDisplay:10.37,2013-09-20 17:19:00,
2013-09-20 12:24:00,63.1,58.2,28.82,SW,225,5.9,5.9,84,0.00,CLR,,0.00,WeatherDisplay:10.37,2013-09-20 17:24:00,
2013-09-20 12:29:00,63.3,58.1,28.82,SSW,202,4.7,5.6,83,0.00,CLR,,0.00,WeatherDisplay:10.37,2013-09-20 17:29:00,
2013-09-20 12:34:00,63.5,58.6,28.82,South,180,3.1,3.1,84,0.00,CLR,,0.00,WeatherDisplay:10.37,2013-09-20 17:34:00,
2013-09-20 12:39:00,64.2,59.3,28.82,SSE,158,4.6,4.6,84,0.00,CLR,,0.00,WeatherDisplay:10.37,2013-09-20 17:39:00,
2013-09-20 12:44:00,64.2,58.6,28.82,SSW,202,4.3,4.3,82,0.00,CLR,,0.00,WeatherDisplay:10.37,2013-09-20 17:44:00,
2013-09-20 12:49:00,64.2,58.3,28.82,SSW,202,6.9,6.9,81,0.00,CLR,,0.00,WeatherDisplay:10.37,2013-09-20 17:49:00,
2013-09-20 12:54:00,64.2,58.3,28.82,SW,225,6.2,6.2,81,0.00,CLR,,0.00,WeatherDisplay:10.37,2013-09-20 17:54:00,
2013-09-20 12:59:00,64.0,57.7,28.82,SW,225,5.8,5.8,80,0.00,CLR,,0.00,WeatherDisplay:10.37,2013-09-20 17:59:00,
2013-09-20 13:04:00,64.0,57.7,28.82,SW,225,4.6,4.6,80,0.00,CLR,,0.00,WeatherDisplay:10.37,2013-09-20 18:04:00,
2013-09-20 13:09:00,64.2,58.3,28.82,SW,225,4.6,4.6,81,0.00,CLR,,0.00,WeatherDisplay:10.37,2013-09-20 18:09:00,
2013-09-20 13:14:00,64.2,57.6,28.79,SW,225,5.8,5.8,79,0.00,CLR,,0.00,WeatherDisplay:10.37,2013-09-20 18:14:00,
2013-09-20 13:19:00,64.2,57.9,28.79,WSW,248,4.7,4.7,80,0.00,CLR,,0.00,WeatherDisplay:10.37,2013-09-20 18:19:00,
2013-09-20 13:24:00,64.2,57.9,28.79,West,270,5.8,5.8,80,0.00,CLR,,0.00,WeatherDisplay:10.37,2013-09-20 18:24:00,
2013-09-20 13:29:00,64.4,58.1,28.79,West,270,5.4,5.4,80,0.00,CLR,,0.00,WeatherDisplay:10.37,2013-09-20 18:29:00,
2013-09-20 13:34:00,64.4,58.1,28.79,SW,225,3.5,3.5,80,0.00,CLR,,0.00,WeatherDisplay:10.37,2013-09-20 18:34:00,
2013-09-20 13:39:00,64.4,58.1,28.79,SW,225,3.5,3.5,80,0.00,CLR,,0.00,WeatherDisplay:10.37,2013-09-20 18:39:00,
2013-09-20 13:44:00,64.6,58.3,28.79,SW,225,2.3,2.3,80,0.00,CLR,,0.00,WeatherDisplay:10.37,2013-09-20 18:44:00,
2013-09-20 13:49:00,64.8,58.1,28.79,SW,225,5.9,5.9,79,0.00,CLR,,0.00,WeatherDisplay:10.37,2013-09-20 18:49:00,
2013-09-20 13:54:00,64.8,58.1,28.79,West,270,4.6,4.6,79,0.00,CLR,,0.00,WeatherDisplay:10.37,2013-09-20 18:54:00,
2013-09-20 13:59:00,64.9,57.9,28.79,NE,45,3.5,3.5,78,0.00,CLR,,0.00,WeatherDisplay:10.37,2013-09-20 18:59:00,
2013-09-20 14:04:00,65.5,58.8,28.79,NW,315,2.3,2.3,79,0.00,CLR,,0.00,WeatherDisplay:10.37,2013-09-20 19:04:00,
2013-09-20 14:09:00,65.8,59.1,28.79,WNW,292,3.5,3.5,79,0.00,CLR,,0.00,WeatherDisplay:10.37,2013-09-20 19:09:00,
2013-09-20 14:14:00,66.4,59.3,28.79,NNE,22,2.3,2.3,78,0.00,CLR,,0.00,WeatherDisplay:10.37,2013-09-20 19:14:00,
2013-09-20 14:19:00,66.9,59.1,28.79,South,180,2.9,2.9,76,0.00,CLR,,0.00,WeatherDisplay:10.37,2013-09-20 19:19:00,
2013-09-20 14:24:00,67.3,59.1,28.79,WSW,248,5.8,5.8,75,0.00,CLR,,0.00,WeatherDisplay:10.37,2013-09-20 19:24:00,
2013-09-20 14:29:00,67.5,58.1,28.79,WSW,248,4.6,4.6,72,0.00,CLR,,0.00,WeatherDisplay:10.37,2013-09-20 19:29:00,
2013-09-20 14:34:00,67.1,57.8,28.79,WNW,292,4.6,4.6,72,0.00,CLR,,0.00,WeatherDisplay:10.37,2013-09-20 19:34:00,
2013-09-20 14:39:00,66.6,57.3,28.79,NNW,338,3.5,3.5,72,0.00,CLR,,0.00,WeatherDisplay:10.37,2013-09-20 19:39:00,
2013-09-20 14:44:00,65.5,57.3,28.79,NNW,338,1.1,0.0,75,0.00,CLR,,0.00,WeatherDisplay:10.37,2013-09-20 19:44:00,
2013-09-20 14:49:00,64.8,57.4,28.79,NNW,338,2.6,2.6,77,0.00,CLR,,0.00,WeatherDisplay:10.37,2013-09-20 19:49:00,
2013-09-20 14:54:00,63.7,57.0,28.79,West,270,4.6,4.6,79,0.00,CLR,,0.00,WeatherDisplay:10.37,2013-09-20 19:54:00,
2013-09-20 14:59:00,62.8,56.9,28.82,NW,315,4.6,4.6,81,0.00,CLR,,0.00,WeatherDisplay:10.37,2013-09-20 19:59:00,
2013-09-20 15:04:00,62.2,56.7,28.82,West,270,2.3,2.3,82,0.00,CLR,,0.00,WeatherDisplay:10.37,2013-09-20 20:04:00,
2013-09-20 15:09:00,62.1,57.2,28.82,SW,225,3.5,3.5,84,0.00,CLR,,0.00,WeatherDisplay:10.37,2013-09-20 20:09:00,
2013-09-20 15:14:00,61.9,57.3,28.82,NNW,338,1.1,0.0,85,0.00,CLR,,0.00,WeatherDisplay:10.37,2013-09-20 20:14:00,
2013-09-20 15:19:00,61.9,57.6,28.82,NW,315,2.3,2.3,86,0.00,CLR,,0.00,WeatherDisplay:10.37,2013-09-20 20:19:00,
2013-09-20 15:24:00,61.7,57.5,28.82,South,180,4.0,4.0,86,0.00,CLR,,0.00,WeatherDisplay:10.37,2013-09-20 20:24:00,
2013-09-20 15:29:00,61.7,57.5,28.82,NNW,338,4.6,4.6,86,0.00,CLR,,0.00,WeatherDisplay:10.37,2013-09-20 20:29:00,
2013-09-20 15:34:00,61.3,56.8,28.82,NW,315,3.5,3.5,85,0.00,CLR,,0.00,WeatherDisplay:10.37,2013-09-20 20:34:00,
2013-09-20 15:39:00,60.8,56.3,28.82,NNW,338,2.9,2.9,85,0.00,CLR,,0.00,WeatherDisplay:10.37,2013-09-20 20:39:00,
2013-09-20 15:44:00,60.4,56.2,28.82,SSE,158,1.6,1.6,86,0.00,CLR,,0.00,WeatherDisplay:10.37,2013-09-20 20:44:00,
2013-09-20 15:49:00,60.3,56.1,28.82,WSW,248,2.3,2.3,86,0.00,CLR,,0.00,WeatherDisplay:10.37,2013-09-20 20:49:00,
2013-09-20 15:54:00,60.3,56.4,28.82,NW,315,3.5,3.5,87,0.00,CLR,,0.00,WeatherDisplay:10.37,2013-09-20 20:54:00,
2013-09-20 15:59:00,60.3,56.4,28.82,WSW,248,2.9,2.9,87,0.00,CLR,,0.00,WeatherDisplay:10.37,2013-09-20 20:59:00,
2013-09-20 16:04:00,60.4,56.9,28.82,West,270,2.4,2.4,88,0.00,CLR,,0.00,WeatherDisplay:10.37,2013-09-20 21:04:00,
2013-09-20 16:09:00,61.0,57.4,28.82,WSW,248,4.6,4.6,88,0.00,CLR,,0.00,WeatherDisplay:10.37,2013-09-20 21:09:00,
2013-09-20 16:14:00,61.3,57.4,28.85,SSW,202,2.9,2.9,87,0.00,CLR,,0.00,WeatherDisplay:10.37,2013-09-20 21:14:00,
2013-09-20 16:19:00,61.3,56.5,28.85,SSW,202,4.6,4.6,84,0.00,CLR,,0.00,WeatherDisplay:10.37,2013-09-20 21:19:00,
2013-09-20 16:24:00,61.7,56.8,28.85,NNE,22,5.8,5.8,84,0.00,CLR,,0.00,WeatherDisplay:10.37,2013-09-20 21:24:00,
2013-09-20 16:29:00,61.7,55.8,28.85,NW,315,3.5,3.5,81,0.00,CLR,,0.00,WeatherDisplay:10.37,2013-09-20 21:29:00,
2013-09-20 16:34:00,61.9,56.0,28.85,NW,315,3.5,3.5,81,0.00,CLR,,0.00,WeatherDisplay:10.37,2013-09-20 21:34:00,
2013-09-20 16:39:00,61.9,55.6,28.85,WNW,292,3.5,3.5,80,0.00,CLR,,0.00,WeatherDisplay:10.37,2013-09-20 21:39:00,
2013-09-20 16:44:00,62.1,55.5,28.85,West,270,3.5,3.5,79,0.00,CLR,,0.00,WeatherDisplay:10.37,2013-09-20 21:44:00,
2013-09-20 16:49:00,62.2,55.3,28.85,ENE,68,4.6,4.6,78,0.00,CLR,,0.00,WeatherDisplay:10.37,2013-09-20 21:49:00,
2013-09-20 16:54:00,62.6,55.3,28.85,NW,315,4.0,4.0,77,0.00,CLR,,0.00,WeatherDisplay:10.37,2013-09-20 21:54:00,
2013-09-20 16:59:00,62.6,54.6,28.85,SE,135,3.5,3.5,75,0.00,CLR,,0.00,WeatherDisplay:10.37,2013-09-20 21:59:00,
2013-09-20 17:04:00,62.6,53.8,28.85,SW,225,4.6,4.6,73,0.00,CLR,,0.00,WeatherDisplay:10.37,2013-09-20 22:04:00,
2013-09-20 17:09:00,62.4,53.6,28.85,NW,315,3.6,3.6,73,0.00,CLR,,0.00,WeatherDisplay:10.37,2013-09-20 22:09:00,
2013-09-20 17:14:00,62.2,53.5,28.85,NNW,338,4.6,4.6,73,0.00,CLR,,0.00,WeatherDisplay:10.37,2013-09-20 22:14:00,
2013-09-20 17:19:00,62.1,53.3,28.85,NNW,338,4.6,4.6,73,0.00,CLR,,0.00,WeatherDisplay:10.37,2013-09-20 22:19:00,
2013-09-20 17:24:00,61.9,53.1,28.85,NNW,338,2.3,2.3,73,0.00,CLR,,0.00,WeatherDisplay:10.37,2013-09-20 22:24:00,
2013-09-20 17:29:00,61.9,53.1,28.85,NNW,338,3.3,3.3,73,0.00,CLR,,0.00,WeatherDisplay:10.37,2013-09-20 22:29:00,
2013-09-20 17:34:00,61.7,53.0,28.85,WSW,248,3.5,3.5,73,0.00,CLR,,0.00,WeatherDisplay:10.37,2013-09-20 22:34:00,
2013-09-20 17:40:00,61.5,52.8,28.85,NNW,338,3.5,3.5,73,0.00,CLR,,0.00,WeatherDisplay:10.37,2013-09-20 22:40:00,
2013-09-20 17:45:00,61.5,52.8,28.85,WNW,292,3.8,3.8,73,0.00,CLR,,0.00,WeatherDisplay:10.37,2013-09-20 22:45:00,
2013-09-20 17:50:00,61.7,53.0,28.85,NW,315,2.6,2.6,73,0.00,CLR,,0.00,WeatherDisplay:10.37,2013-09-20 22:50:00,
2013-09-20 17:55:00,61.7,52.6,28.85,NW,315,3.5,3.5,72,0.00,CLR,,0.00,WeatherDisplay:10.37,2013-09-20 22:55:00,
2013-09-20 18:00:00,61.5,52.0,28.85,NNW,338,2.6,2.6,71,0.00,CLR,,0.00,WeatherDisplay:10.37,2013-09-20 23:00:00,
2013-09-20 18:05:00,61.3,51.9,28.85,NNW,338,1.1,1.1,71,0.00,CLR,,0.00,WeatherDisplay:10.37,2013-09-20 23:05:00,
2013-09-20 18:10:00,61.3,51.5,28.85,NW,315,4.0,4.0,70,0.00,CLR,,0.00,WeatherDisplay:10.37,2013-09-20 23:10:00,
2013-09-20 18:15:00,61.3,51.5,28.85,NNW,338,2.6,2.6,70,0.00,CLR,,0.00,WeatherDisplay:10.37,2013-09-20 23:15:00,
2013-09-20 18:20:00,61.2,51.3,28.85,WSW,248,2.3,2.3,70,0.00,CLR,,0.00,WeatherDisplay:10.37,2013-09-20 23:20:00,
2013-09-20 18:25:00,61.2,51.7,28.85,NNW,338,2.3,2.3,71,0.00,CLR,,0.00,WeatherDisplay:10.37,2013-09-20 23:25:00,
2013-09-20 18:30:00,61.0,51.5,28.85,WNW,292,1.1,1.6,71,0.00,CLR,,0.00,WeatherDisplay:10.37,2013-09-20 23:30:00,
2013-09-20 18:35:00,61.0,51.5,28.85,WSW,248,1.1,1.1,71,0.00,CLR,,0.00,WeatherDisplay:10.37,2013-09-20 23:35:00,
2013-09-20 18:40:00,60.8,51.3,28.85,West,270,1.6,0.0,71,0.00,CLR,,0.00,WeatherDisplay:10.37,2013-09-20 23:40:00,
2013-09-20 18:45:00,60.6,51.2,28.85,WNW,292,2.0,2.0,71,0.00,CLR,,0.00,WeatherDisplay:10.37,2013-09-20 23:45:00,
2013-09-20 18:50:00,60.4,51.0,28.85,ENE,68,1.1,1.1,71,0.00,CLR,,0.00,WeatherDisplay:10.37,2013-09-20 23:50:00,
2013-09-20 18:55:00,60.3,50.8,28.85,WSW,248,2.4,2.4,71,0.00,CLR,,0.00,WeatherDisplay:10.37,2013-09-20 23:55:00,
2013-09-20 19:00:00,60.1,50.6,28.85,SW,225,2.3,2.3,71,0.00,CLR,,0.00,WeatherDisplay:10.37,2013-09-21 00:00:00,
2013-09-20 19:05:00,59.9,50.8,28.85,SSW,202,2.6,2.6,72,0.00,CLR,,0.00,WeatherDisplay:10.37,2013-09-21 00:05:00,
2013-09-20 19:10:00,59.9,50.5,28.85,WNW,292,1.1,1.4,71,0.00,CLR,,0.00,WeatherDisplay:10.37,2013-09-21 00:10:00,
2013-09-20 19:15:00,59.7,50.3,28.82,SW,225,0.0,0.0,71,0.00,CLR,,0.00,WeatherDisplay:10.37,2013-09-21 00:15:00,
2013-09-20 19:20:00,59.7,50.3,28.82,NNW,338,1.6,0.0,71,0.00,CLR,,0.00,WeatherDisplay:10.37,2013-09-21 00:20:00,
2013-09-20 19:25:00,59.5,50.1,28.82,West,270,1.1,1.1,71,0.00,CLR,,0.00,WeatherDisplay:10.37,2013-09-21 00:25:00,
2013-09-20 19:30:00,59.5,50.1,28.85,NW,315,1.4,1.4,71,0.00,CLR,,0.00,WeatherDisplay:10.37,2013-09-21 00:30:00,
2013-09-20 19:35:00,59.4,50.0,28.85,WSW,248,1.1,0.0,71,0.00,CLR,,0.00,WeatherDisplay:10.37,2013-09-21 00:35:00,
2013-09-20 19:40:00,59.4,50.3,28.85,West,270,2.3,2.3,72,0.00,CLR,,0.00,WeatherDisplay:10.37,2013-09-21 00:40:00,
2013-09-20 19:45:00,59.2,50.2,28.85,West,270,1.1,1.4,72,0.00,CLR,,0.00,WeatherDisplay:10.37,2013-09-21 00:45:00,
2013-09-20 19:50:00,59.2,50.2,28.85,WSW,248,1.4,2.0,72,0.00,CLR,,0.00,WeatherDisplay:10.37,2013-09-21 00:50:00,
2013-09-20 19:55:00,58.8,50.2,28.85,SSW,202,1.1,0.0,73,0.00,CLR,,0.00,WeatherDisplay:10.37,2013-09-21 00:55:00,
2013-09-20 20:00:00,58.8,50.2,28.85,WSW,248,2.3,2.3,73,0.00,CLR,,0.00,WeatherDisplay:10.37,2013-09-21 01:00:00,
2013-09-20 20:05:00,58.6,49.6,28.85,SSW,202,2.4,2.4,72,0.00,CLR,,0.00,WeatherDisplay:10.37,2013-09-21 01:05:00,
2013-09-20 20:10:00,58.5,49.8,28.85,NNW,338,2.3,2.3,73,0.00,CLR,,0.00,WeatherDisplay:10.37,2013-09-21 01:10:00,
2013-09-20 20:15:00,58.5,49.8,28.88,NNW,338,1.1,0.0,73,0.00,CLR,,0.00,WeatherDisplay:10.37,2013-09-21 01:15:00,
2013-09-20 20:20:00,58.3,49.7,28.88,North,0,1.1,0.0,73,0.00,CLR,,0.00,WeatherDisplay:10.37,2013-09-21 01:20:00,
2013-09-20 20:26:00,58.1,49.5,28.88,NNW,338,1.4,0.0,73,0.00,CLR,,0.00,WeatherDisplay:10.37,2013-09-21 01:26:00,
2013-09-20 20:31:00,58.1,49.5,28.88,NNW,338,0.9,0.0,73,0.00,CLR,,0.00,WeatherDisplay:10.37,2013-09-21 01:31:00,
2013-09-20 20:36:00,57.9,49.3,28.88,SW,225,2.3,0.0,73,0.00,CLR,,0.00,WeatherDisplay:10.37,2013-09-21 01:36:00,
2013-09-20 20:41:00,57.9,49.3,28.88,WNW,292,0.0,0.0,73,0.00,CLR,,0.00,WeatherDisplay:10.37,2013-09-21 01:41:00,
2013-09-20 20:46:00,57.9,49.3,28.88,NW,315,0.0,0.0,73,0.00,CLR,,0.00,WeatherDisplay:10.37,2013-09-21 01:46:00,
2013-09-20 20:51:00,57.7,48.8,28.88,WSW,248,2.3,2.3,72,0.00,CLR,,0.00,WeatherDisplay:10.37,2013-09-21 01:51:00,
2013-09-20 20:56:00,57.7,48.8,28.88,NNW,338,1.6,1.6,72,0.00,CLR,,0.00,WeatherDisplay:10.37,2013-09-21 01:56:00,
2013-09-20 21:01:00,57.6,48.6,28.88,SW,225,1.6,1.6,72,0.00,CLR,,0.00,WeatherDisplay:10.37,2013-09-21 02:01:00,
2013-09-20 21:06:00,57.6,49.0,28.88,NNW,338,2.3,2.3,73,0.00,CLR,,0.00,WeatherDisplay:10.37,2013-09-21 02:06:00,
2013-09-20 21:11:00,57.6,49.0,28.88,SSW,202,0.9,0.0,73,0.00,CLR,,0.00,WeatherDisplay:10.37,2013-09-21 02:11:00,
2013-09-20 21:16:00,57.6,49.0,28.88,WSW,248,1.4,1.4,73,0.00,CLR,,0.00,WeatherDisplay:10.37,2013-09-21 02:16:00,
2013-09-20 21:21:00,57.6,49.3,28.88,West,270,1.1,1.1,74,0.00,CLR,,0.00,WeatherDisplay:10.37,2013-09-21 02:21:00,
2013-09-20 21:26:00,57.4,49.2,28.88,SSW,202,1.1,0.0,74,0.00,CLR,,0.00,WeatherDisplay:10.37,2013-09-21 02:26:00,
2013-09-20 21:31:00,57.4,49.5,28.88,ENE,68,1.1,0.0,75,0.00,CLR,,0.00,WeatherDisplay:10.37,2013-09-21 02:31:00,
2013-09-20 21:36:00,57.4,49.5,28.88,East,90,0.0,0.0,75,0.00,CLR,,0.00,WeatherDisplay:10.37,2013-09-21 02:36:00,
2013-09-20 21:41:00,57.2,49.3,28.88,SSW,202,2.3,0.0,75,0.00,CLR,,0.00,WeatherDisplay:10.37,2013-09-21 02:41:00,
2013-09-20 21:46:00,57.2,49.3,28.88,WNW,292,2.3,2.3,75,0.00,CLR,,0.00,WeatherDisplay:10.37,2013-09-21 02:46:00,
2013-09-20 21:51:00,57.2,49.7,28.88,West,270,2.0,2.0,76,0.00,CLR,,0.00,WeatherDisplay:10.37,2013-09-21 02:51:00,
2013-09-20 21:56:00,57.0,49.5,28.88,NNW,338,2.3,2.3,76,0.00,CLR,,0.00,WeatherDisplay:10.37,2013-09-21 02:56:00,
2013-09-20 22:01:00,57.0,49.5,28.88,WSW,248,4.6,4.6,76,0.00,CLR,,0.00,WeatherDisplay:10.37,2013-09-21 03:01:00,
2013-09-20 22:06:00,56.8,49.4,28.88,NW,315,3.8,3.8,76,0.00,CLR,,0.00,WeatherDisplay:10.37,2013-09-21 03:06:00,
2013-09-20 22:11:00,56.8,49.4,28.88,NNW,338,3.5,3.5,76,0.00,CLR,,0.00,WeatherDisplay:10.37,2013-09-21 03:11:00,
2013-09-20 22:16:00,56.8,49.4,28.88,ESE,112,2.3,2.4,76,0.00,CLR,,0.00,WeatherDisplay:10.37,2013-09-21 03:16:00,
2013-09-20 22:21:00,56.7,49.2,28.88,SSW,202,2.3,2.3,76,0.00,CLR,,0.00,WeatherDisplay:10.37,2013-09-21 03:21:00,
2013-09-20 22:26:00,56.7,49.2,28.91,NNW,338,2.3,2.3,76,0.00,CLR,,0.00,WeatherDisplay:10.37,2013-09-21 03:26:00,
2013-09-20 22:31:00,56.7,49.5,28.91,WNW,292,1.1,2.0,77,0.00,CLR,,0.00,WeatherDisplay:10.37,2013-09-21 03:31:00,
2013-09-20 22:36:00,56.5,49.4,28.91,ENE,68,0.0,0.0,77,0.00,CLR,,0.00,WeatherDisplay:10.37,2013-09-21 03:36:00,
2013-09-20 22:41:00,56.5,49.4,28.88,NW,315,2.3,2.3,77,0.00,CLR,,0.00,WeatherDisplay:10.37,2013-09-21 03:41:00,
2013-09-20 22:46:00,56.5,49.4,28.88,WSW,248,1.4,1.4,77,0.00,CLR,,0.00,WeatherDisplay:10.37,2013-09-21 03:46:00,
2013-09-20 22:51:00,56.5,49.4,28.88,NE,45,1.6,1.6,77,0.00,CLR,,0.00,WeatherDisplay:10.37,2013-09-21 03:51:00,
2013-09-20 22:56:00,56.3,49.2,28.91,WNW,292,2.3,2.3,77,0.00,CLR,,0.00,WeatherDisplay:10.37,2013-09-21 03:56:00,
2013-09-20 23:01:00,56.3,49.2,28.91,NNW,338,1.1,1.1,77,0.00,CLR,,0.00,WeatherDisplay:10.37,2013-09-21 04:01:00,
2013-09-20 23:02:00,56.3,49.5,28.91,NNW,338,1.1,1.1,78,0.00,CLR,,0.00,WeatherDisplay:10.37,2013-09-21 04:02:00,
2013-09-20 23:07:00,56.1,49.0,28.91,WNW,292,3.5,3.5,77,0.00,CLR,,0.00,WeatherDisplay:10.37,2013-09-21 04:07:00,
2013-09-20 23:12:00,55.9,48.8,28.91,WNW,292,3.1,3.1,77,0.00,CLR,,0.00,WeatherDisplay:10.37,2013-09-21 04:12:00,
2013-09-20 23:17:00,55.8,49.0,28.91,SSE,158,1.1,1.6,78,0.00,CLR,,0.00,WeatherDisplay:10.37,2013-09-21 04:17:00,
2013-09-20 23:22:00,55.6,48.8,28.91,NNW,338,2.3,2.3,78,0.00,CLR,,0.00,WeatherDisplay:10.37,2013-09-21 04:22:00,
2013-09-20 23:27:00,55.2,48.8,28.91,NNE,22,0.0,0.0,79,0.00,CLR,,0.00,WeatherDisplay:10.37,2013-09-21 04:27:00,
2013-09-20 23:32:00,55.0,48.6,28.91,NNE,22,0.0,0.0,79,0.00,CLR,,0.00,WeatherDisplay:10.37,2013-09-21 04:32:00,
2013-09-20 23:37:00,54.7,48.6,28.91,South,180,1.1,0.0,80,0.00,CLR,,0.00,WeatherDisplay:10.37,2013-09-21 04:37:00,
2013-09-20 23:42:00,54.5,48.5,28.91,NNW,338,0.0,0.0,80,0.00,CLR,,0.00,WeatherDisplay:10.37,2013-09-21 04:42:00,
2013-09-20 23:47:00,54.3,48.6,28.91,SSW,202,1.1,0.0,81,0.00,CLR,,0.00,WeatherDisplay:10.37,2013-09-21 04:47:00,
2013-09-20 23:52:00,54.1,48.8,28.91,SE,135,0.0,0.0,82,0.00,CLR,,0.00,WeatherDisplay:10.37,2013-09-21 04:52:00,
2013-09-20 23:57:00,53.8,48.4,28.91,SE,135,0.0,0.0,82,0.00,CLR,,0.00,WeatherDisplay:10.37,2013-09-21 04:57:00,